Weather in Duluth

United States     46°47′40″N   92°05′37″W
В апреле 2022 года жителям России запретили посещать сайт meteo.paraplan.net по решению Генеральной прокуратуры. Аудитория сайта уменьшилась в 10 раз. Владельцы сайта не видят смысла в поддержке погодного сервера в таких условиях. Сайт будет закрыт в октябре.
temp.,
°C
wind,
m/s
gust,
m/s
humid.,
%
clouds,
%
prec.,
mm/h
press.,
hPa
HPBL,
m
4 october, tue
tue401:00+14sw2474100 0.1 102179
04:00+14sw2675100 0.1 1021149
07:00+13ssw2480100 0.1 102068
10:00+16sw3663100 0.0 1020211
13:00+21ssw3548100 0.0 1018480
16:00+22ssw3645100 0.0 1016904
19:00+18s3460100 0.0 101636
22:00+17ssw2464100 0.0 101562
5 october, wed
wed501:00+15ssw2368100 0.0 101540
04:00+15sw2463100 0.0 101563
07:00+16ssw1272100 0.0 101441
10:00+17sw366596 0.0 1014345
13:00+19wsw245795 0.0 1014533
16:00+19nw466752 1.0 1013499
19:00+16wnw1173100 1.3 101412
22:00+14w1177100 0.0 101412
6 october, thu
thu601:00+14nnw3672100 0.0 1015152
04:00+11n4884100 1.2 1018507
07:00+9nnw8128146 1.3 1021723
10:00+7nnw797698 0.0 1024855
13:00+8n6977100 0.4 10271115
16:00+8nne6867100 0.3 10291201
19:00+7nne676395 0.4 1031964
22:00+5nne566398 0.0 1032860
7 october, fri
fri701:00+5n455995 0.0 1033766
04:00+4n345654 0.0 1033551
07:00+1nnw34753 0.0 1034217
10:00+4nw225335 0.0 1033708
13:00+8w233381 0.0 10311075
16:00+10w45315 0.0 10271521
19:00+7wsw364337 0.0 1026427
22:00+5wsw365193 0.0 1025147
8 october, sat
sat801:00+4wsw485162 0.0 1023184
04:00+6wsw61547100 0.0 1021412
07:00+6wsw6144567 0.0 1020425
10:00+10w510395 0.0 1019602
13:00+15wnw58380 0.0 1017796
16:00+16nw47374 0.0 1016884
19:00+11nw22555 0.0 101725
22:00+9nw24615 0.0 1019131